Weather History for Nadi, Fiji

Change the Weather History Date:

Tuesday, November 20, 2012

  Actual Average Record
Temperature  
Mean Temperature 82 °F -  
Max Temperature 89 °F 85 °F 91 °F (2001)
Min Temperature 75 °F 71 °F 68 °F (1996)
Cooling Degree Days 17    
Growing Degree Days 32 (Base 50)    
Moisture  
Dew Point 76 °F    
Average Humidity 83    
Maximum Humidity 100    
Minimum Humidity 66    
Precipitation  
Precipitation 0.00 in 0.20 in - ()
Sea Level Pressure  
Sea Level Pressure 29.89 in    
Wind  
Wind Speed 2 mph ()    
Max Wind Speed 12 mph    
Max Gust Speed -    
Visibility 12.0 miles    
Events Thunderstorm    
Averages and records for this station are not official NWS values.
T = Trace of Precipitation, MM = Missing Value Source: Averaged Metar Reports

Daily Weather History Graph

Daily Weather History Graph

Search for Another Location

Airport:

Trip Planner

Search our weather history database for the weather conditions in past years. The results will help you decide how hot, cold, wet, or windy it might be!

Date:

Astronomy

Nov. 20, 2012 Rise Set
Actual Time 6:25 AM FJST 7:26 PM FJST
Civil Twilight 6:02 AM FJST 7:49 PM FJST
Nautical Twilight 5:34 AM FJST 8:17 PM FJST
Astronomical Twilight 5:06 AM FJST 8:45 PM FJST
Moon 12:24 PM FJST (11/20) 12:27 AM FJST (11/20)
Length of Visible Light 13h 47m
Length of Day
13h 00m
Waxing Crescent, 43% of the Moon is Illuminated
Nov 20
Waxing Crescent
Nov 21
First Quarter
Nov 29
Full
Dec 7
Last Quarter
Dec 13
New

Hourly Weather History & Observations

Time (FJST) Temp. Heat Index Dew Point Humidity Pressure Visibility Wind Dir Wind Speed Gust Speed Precip Events Conditions
12:00 AM 78.8 °F - 75.2 °F 89% 29.92 in 28.0 mi Calm Calm - N/A   Mostly Cloudy
1:00 AM 79 °F - 76 °F 89% 29.93 in 12 mi Calm Calm - -   Partly Cloudy
1:00 AM 78.8 °F - 77.0 °F 94% 29.92 in 28.0 mi Calm Calm - N/A   Mostly Cloudy
2:00 AM 78.8 °F - 75.2 °F 89% 29.92 in 24.9 mi Calm Calm - N/A   Mostly Cloudy
3:00 AM 78.8 °F - 75.2 °F 89% 29.89 in 24.9 mi Calm Calm - N/A   Scattered Clouds
4:00 AM 77 °F - 75 °F 93% 29.88 in 12 mi Calm Calm - -   Partly Cloudy
4:00 AM 77.0 °F - 75.2 °F 94% 29.86 in 24.9 mi Calm Calm - N/A   Mostly Cloudy
5:00 AM 77.0 °F - 75.2 °F 94% 29.86 in 24.9 mi Calm Calm - N/A   Mostly Cloudy
6:00 AM 75.2 °F - 75.2 °F 100% 29.89 in 24.9 mi Calm Calm - N/A   Mostly Cloudy
7:00 AM 76 °F - 75 °F 95% 29.91 in 12 mi Calm Calm - -   Partly Cloudy
7:00 AM 75.2 °F - 75.2 °F 100% 29.89 in 24.9 mi Calm Calm - N/A   Mostly Cloudy
8:00 AM 77.0 °F - 75.2 °F 94% 29.92 in 24.9 mi Calm Calm - N/A   Mostly Cloudy
9:00 AM 80.6 °F 86.2 °F 75.2 °F 84% 29.92 in 28.0 mi Calm Calm - N/A   Mostly Cloudy
10:00 AM 83 °F - 75 °F 71% 29.94 in 12 mi West 6.9 mph - -   Partly Cloudy
10:00 AM 84.2 °F 92.3 °F 75.2 °F 74% 29.92 in 28.0 mi West 6.9 mph - N/A   Mostly Cloudy
11:00 AM 84.2 °F 96.1 °F 78.8 °F 84% 29.92 in 28.0 mi WSW 6.9 mph - N/A   Mostly Cloudy
12:00 PM 87.8 °F 99.7 °F 77.0 °F 70% 29.89 in 31.1 mi Calm Calm - N/A   Mostly Cloudy
1:00 PM 84 °F - 78 °F 78% 29.89 in 12 mi West 11.5 mph - -   Partly Cloudy
1:00 PM 84.2 °F 96.1 °F 78.8 °F 84% 29.89 in 28.0 mi West 11.5 mph - N/A   Mostly Cloudy
1:40 PM 84.2 °F 92.3 °F 75.2 °F 74% 29.86 in 31.1 mi West 5.8 mph - N/A Thunderstorm Thunderstorm
2:00 PM 87.8 °F 102.5 °F 78.8 °F 75% 29.86 in 31.1 mi WSW 5.8 mph - N/A   Scattered Clouds
3:00 PM 84.2 °F 94.1 °F 77.0 °F 79% 29.86 in 31.1 mi SSW 11.5 mph - N/A   Mostly Cloudy
4:00 PM 86 °F - 78 °F 70% 29.86 in 31 mi SSW 6.9 mph - -   Partly Cloudy
4:00 PM 86.0 °F 96.9 °F 77.0 °F 74% 29.83 in 31.1 mi SSW 6.9 mph - N/A   Mostly Cloudy
5:00 PM 89.6 °F 102.2 °F 77.0 °F 66% 29.83 in 31.1 mi North 8.1 mph - N/A   Mostly Cloudy
6:00 PM 87.8 °F 102.5 °F 78.8 °F 75% 29.83 in 31.1 mi SE 4.6 mph - N/A   Mostly Cloudy
7:00 PM 84 °F - 76 °F 72% 29.87 in 12 mi Calm Calm - -   Partly Cloudy
7:00 PM 84.2 °F 94.1 °F 77.0 °F 79% 29.86 in 31.1 mi Calm Calm - N/A   Mostly Cloudy
8:00 PM 82.4 °F 89.5 °F 75.2 °F 79% 29.89 in 31.1 mi SSW 4.6 mph - N/A   Mostly Cloudy
9:00 PM 80.6 °F 87.1 °F 77.0 °F 89% 29.89 in 24.9 mi SSW 4.6 mph - N/A   Mostly Cloudy
10:00 PM 82 °F - 76 °F 77% 29.92 in 12 mi Calm Calm - -   Partly Cloudy
10:00 PM 82.4 °F 89.5 °F 75.2 °F 79% 29.92 in 24.9 mi Calm Calm - N/A   Scattered Clouds
11:00 PM 78.8 °F - 77.0 °F 94% 29.92 in 24.9 mi Calm Calm - N/A   Mostly Cloudy